DW8871 Weather Reports


Display with metric or nautical units.
time (UTC)temp
F
wind
direction
speed
MPH
gust
MPH
rain 1hr
in
rain 24hr
in
rain mn
in
humidity
%
barometer
mb
20260504190030 80 259 5.0 13.0 0.00 0.00 0.00 45 1002.3
20260504184544 79 259 4.0 10.0 0.00 0.00 0.00 47 1002.4
20260504183029 78 238 5.0 13.0 0.00 0.00 0.00 46 1002.5
20260504181534 77 243 6.0 13.0 0.00 0.00 0.00 47 1002.5
20260504180033 77 225 4.0 11.0 0.00 0.00 0.00 47 1002.8
20260504174530 76 292 5.0 14.0 0.00 0.00 0.00 49 1002.9
20260504173030 75 238 8.0 15.0 0.00 0.00 0.00 50 1003.0
20260504171530 74 259 6.0 16.0 0.00 0.00 0.00 52 1003.2
20260504081529 55 0 0.0 0.0 0.00 0.00 0.00 80 1005.1
20260504044528 65 80 0.0 3.0 0.00 0.00 0.00 61 1007.4
20260504043031 65 60 2.0 8.0 0.00 0.00 0.00 63 1008.1
20260504041535 62 0 0.0 1.0 0.00 0.00 0.00 71 1007.9
20260504040030 62 0 0.0 0.0 0.00 0.00 0.00 73 1007.6
20260504034530 61 0 0.0 3.0 0.00 0.00 0.00 72 1007.7
20260504033031 60 0 0.0 0.0 0.00 0.00 0.00 76 1007.7
20260504031535 60 0 0.0 0.0 0.00 0.00 0.00 77 1007.8
20260504030029 61 0 0.0 0.0 0.00 0.00 0.00 77 1007.6
20260504024528 62 0 0.0 0.0 0.00 0.00 0.00 76 1007.6
20260504023028 63 0 0.0 0.0 0.00 0.00 0.00 74 1007.6
20260504021530 64 0 0.0 0.0 0.00 0.00 0.00 72 1007.6
20260504020031 65 32 0.0 2.0 0.00 0.00 0.00 67 1007.6
20260504014537 67 0 0.0 2.0 0.00 0.00 0.00 60 1007.4
20260504013030 68 0 0.0 1.0 0.00 0.00 0.00 62 1007.3
20260504011534 70 0 0.0 0.0 0.00 0.00 0.00 57 1007.3
20260504010029 72 0 0.0 0.0 0.00 0.00 0.00 53 1007.4
20260504004533 74 0 0.0 0.0 0.00 0.00 0.00 51 1007.5
20260504003032 76 0 0.0 0.0 0.00 0.00 0.00 48 1007.5
20260504001532 77 0 0.0 0.0 0.00 0.00 0.00 42 1007.6
20260504000031 78 0 0.0 1.0 0.00 0.00 0.00 42 1007.9
20260503234539 78 0 0.0 2.0 0.00 0.00 0.00 37 1008.1
20260503233037 79 0 0.0 2.0 0.00 0.00 0.00 39 1007.9
20260503231534 80 0 0.0 4.0 0.00 0.00 0.00 36 1008.1
20260503230030 79 49 0.0 2.0 0.00 0.00 0.00 38 1008.3
20260503224528 81 0 0.0 4.0 0.00 0.00 0.00 35 1008.3
20260503223030 81 0 0.0 6.0 0.00 0.00 0.00 36 1008.4
20260503221536 81 0 1.0 6.0 0.00 0.00 0.00 37 1008.6
20260503220032 81 278 1.0 8.0 0.00 0.00 0.00 35 1008.8
20260503214530 81 0 0.0 7.0 0.00 0.00 0.00 35 1008.9
20260503213033 81 303 3.0 9.0 0.00 0.00 0.00 34 1009.2
20260503211531 81 0 2.0 7.0 0.00 0.00 0.00 38 1009.2
20260503210030 82 0 1.0 9.0 0.00 0.00 0.00 36 1009.4
20260503204530 81 67 0.0 9.0 0.00 0.00 0.00 37 1009.6
20260503203036 81 0 1.0 7.0 0.00 0.00 0.00 37 1009.7
20260503201532 80 296 4.0 11.0 0.00 0.00 0.00 37 1009.9
20260503200032 80 0 3.0 8.0 0.00 0.00 0.00 38 1010.1
20260503194532 79 0 2.0 9.0 0.00 0.00 0.00 38 1010.2
20260503193030 79 321 1.0 9.0 0.00 0.00 0.00 38 1010.4
20260503191533 78 286 5.0 12.0 0.00 0.00 0.00 44 1010.6